Tracking 30061 objects as of 9-Dec-2024
HD Live streaming from Space Station
objects crossing your sky now

COSMOS 249 DEB *

Track COSMOS 249 DEB * now!
10-day predictions


NORAD ID: 6176
Int'l Code: 1968-091CG
Perigee: 874.8 km
Apogee: 1,601.1 km
Inclination: 65.7 °
Period: 110.1 minutes
Semi major axis: 7608 km
RCS: 0.0254 m2 (small)
Launch date: October 20, 1968
Source: Commonwealth of Independent States (former USSR) (CIS)
Launch site: TYURATAM MISSILE AND SPACE COMPLEX (TTMTR)

Note: This is SATELLITE DEBRIS
Your satellite tracking list
Your tracking list is empty




NASA's NSSDC Master Catalog

Two Line Element Set (TLE):
1  6176U 68091CG  24343.49481526  .00000629  00000-0  11840-2 0  9992
2  6176  65.7274  20.8773 0477303 274.3296  80.3355 13.08023368 86650
Source of the keplerian elements: AFSPC